Weather History for Ellington Field, TX

Change the Weather History Date:

Wednesday, November 21, 2012

  Actual Average Record
Temperature  
Mean Temperature 72 °F -  
Max Temperature 86 °F 69 °F 86 °F (2012)
Min Temperature 57 °F 50 °F 35 °F (1997)
Cooling Degree Days 6    
Growing Degree Days 22 (Base 50)    
Moisture  
Dew Point 56 °F    
Average Humidity 70    
Maximum Humidity 94    
Minimum Humidity 36    
Precipitation  
Precipitation 0.00 in - - ()
Sea Level Pressure  
Sea Level Pressure 30.22 in    
Wind  
Wind Speed 2 mph (SSE)    
Max Wind Speed 7 mph    
Max Gust Speed -    
Visibility 9 miles    
Events Fog    
Averages and records for this station are not official NWS values.
T = Trace of Precipitation, MM = Missing Value Source: NWS Daily Summary

Daily Weather History Graph

Daily Weather History Graph

Search for Another Location

Airport:

Trip Planner

Search our weather history database for the weather conditions in past years. The results will help you decide how hot, cold, wet, or windy it might be!

Date:

Astronomy

Nov. 21, 2012 Rise Set
Actual Time 6:50 AM CST 5:22 PM CST
Civil Twilight 6:24 AM CST 5:48 PM CST
Nautical Twilight 5:55 AM CST 6:17 PM CST
Astronomical Twilight 5:27 AM CST 6:45 PM CST
Moon 1:14 PM CST (11/21) 12:37 AM CST (11/21)
Length of Visible Light 11h 23m
Length of Day
10h 32m
First Quarter, 62% of the Moon is Illuminated
Nov 21
First Quarter
Nov 28
Full
Dec 6
Last Quarter
Dec 13
New
Dec 19
First Quarter

Hourly Weather History & Observations

Time (CST) Temp. Heat Index Dew Point Humidity Pressure Visibility Wind Dir Wind Speed Gust Speed Precip Events Conditions
12:50 AM 60.8 °F - 57.2 °F 88% 30.21 in 10.0 mi Calm Calm - N/A   Partly Cloudy
1:50 AM 59.0 °F - 55.4 °F 88% 30.21 in 10.0 mi Calm Calm - N/A   Partly Cloudy
2:50 AM 59.0 °F - 55.4 °F 88% 30.22 in 10.0 mi Calm Calm - N/A   Partly Cloudy
3:50 AM 57.2 °F - 55.4 °F 94% 30.22 in 10.0 mi Calm Calm - N/A   Partly Cloudy
4:50 AM 57.2 °F - 55.4 °F 94% 30.22 in 8.0 mi Calm Calm - N/A   Partly Cloudy
5:50 AM 57.2 °F - 55.4 °F 94% 30.23 in 8.0 mi Calm Calm - N/A   Partly Cloudy
6:50 AM 57.2 °F - 55.4 °F 94% 30.24 in 8.0 mi Calm Calm - N/A Fog Shallow Fog
7:50 AM 59.0 °F - 57.2 °F 94% 30.26 in 7.0 mi Calm Calm - N/A Fog Shallow Fog
8:50 AM 62.6 °F - 60.8 °F 94% 30.29 in 5.0 mi NNW 4.6 mph - N/A   Haze
9:50 AM 68.0 °F - 62.6 °F 83% 30.28 in 7.0 mi NW 4.6 mph - N/A   Scattered Clouds
10:50 AM 71.6 °F - 59.0 °F 64% 30.28 in 10.0 mi WNW 6.9 mph - N/A   Scattered Clouds
11:50 AM 75.2 °F - 57.2 °F 53% 30.24 in 10.0 mi NW 4.6 mph - N/A   Scattered Clouds
12:50 PM 77.0 °F - 53.6 °F 44% 30.21 in 10.0 mi NE 4.6 mph - N/A   Scattered Clouds
1:50 PM 80.6 °F 80.5 °F 55.4 °F 42% 30.21 in 10.0 mi NE 4.6 mph - N/A   Scattered Clouds
2:50 PM 86.0 °F 85.4 °F 59.0 °F 40% 30.17 in 10.0 mi SE 4.6 mph - N/A   Mostly Cloudy
3:55 PM 84.2 °F 83.5 °F 57.2 °F 40% 30.16 in 10.0 mi SE 4.6 mph - N/A   Mostly Cloudy
4:50 PM 80.6 °F - 51.8 °F 37% 30.18 in 10.0 mi SE 3.5 mph - N/A   Mostly Cloudy
5:50 PM 75.2 °F - 46.4 °F 36% 30.16 in 10.0 mi South 3.5 mph - N/A   Mostly Cloudy
6:50 PM 69.8 °F - 55.4 °F 60% 30.18 in 10.0 mi Calm Calm - N/A   Mostly Cloudy
7:50 PM 68.0 °F - 55.4 °F 64% 30.19 in 10.0 mi South 3.5 mph - N/A   Mostly Cloudy
8:50 PM 66.2 °F - 55.4 °F 68% 30.22 in 10.0 mi SSW 3.5 mph - N/A   Scattered Clouds
9:50 PM 66.2 °F - 59.0 °F 78% 30.22 in 10.0 mi Calm Calm - N/A   Scattered Clouds
10:50 PM 64.4 °F - 57.2 °F 77% 30.21 in 10.0 mi Calm Calm - N/A   Partly Cloudy
11:50 PM 62.6 °F - 55.4 °F 77% 30.19 in 10.0 mi Calm Calm - N/A   Partly Cloudy